Tracking 28790 objects as of 19-Apr-2024
HD Live streaming from Space Station
objects crossing your sky now

THORAD AGENA D DEB

Track THORAD AGENA D DEB now!
10-day predictions


NORAD ID: 4611
Int'l Code: 1970-025P
Perigee: 800.7 km
Apogee: 985.6 km
Inclination: 99.8 °
Period: 102.7 minutes
Semi major axis: 7264 km
RCS: 0.4297 m2 (medium)
Launch date: April 8, 1970
Source: United States (US)
Launch site: AIR FORCE WESTERN TEST RANGE (AFWTR)

Note: This is SATELLITE DEBRIS
Your satellite tracking list
Your tracking list is empty




NASA's NSSDC Master Catalog

Two Line Element Set (TLE):
1 04611U 70025P   24109.42805109  .00001027  00000-0  65451-3 0  9995
2 04611  99.8029  38.6601 0127245  81.4221 280.1336 14.02244855744940
Source of the keplerian elements: AFSPC